Погода в Косулино

Россия / Свердловская область     56°44′10″N   60°57′45″E
темп.,
°C
ветер,
м/с
пор.,
м/с
влажн.,
%
обл.,
%
осадки,
мм/ч
давл.,
гПа
погр.,
м
18 января, пн
пн1823:00−16з5138893 0.0 1008591
02:00−17з5139098 0.0 1011502
05:00−18з5129197 0.0 1014398
08:00−20з5129122 0.0 1016297
11:00−20зсз5119011 0.0 1018266
14:00−17зсз49900 0.0 1018265
17:00−18з49900 0.0 1020226
20:00−21з310920 0.0 1020199
19 января, вт
вт1923:00−21з38910 0.0 1021153
02:00−22зсз23900 0.0 102244
05:00−21з228719 0.0 102220
08:00−20ююз1284100 0.0 102220
11:00−18юв2385100 0.0 1022104
14:00−15юв3586100 0.0 1021231
17:00−16юв3691100 0.0 1020218
20:00−16юв3891100 0.0 1020292
20 января, ср
ср2023:00−16юв3893100 0.0 1019305
02:00−16вюв3893100 0.3 1018353
05:00−16вюв3794100 0.3 1017338
08:00−16в3793100 0.1 1015400
11:00−16вюв3795100 0.6 1014449
14:00−15вюв3595100 1.1 1012480
17:00−16вюв1197100 2.1 101032
20:00−16юз1197100 0.6 101020
21 января, чт
чт2123:00−16зюз2797100 0.9 1009283
02:00−16з51193100 0.4 1009658
05:00−17з61392100 0.8 1009684
08:00−17з61387100 0.1 1010599
11:00−17з6138898 0.1 1012555
14:00−16з6118899 0.0 1013520
17:00−18з5119097 0.0 1013410
20:00−20з4129285 0.0 1014375
22 января, пт
пт2223:00−19з4139193 0.0 1014433
02:00−20з4129257 0.0 1014357
05:00−19з399379 0.0 1012369
08:00−16зюз2697100 0.6 1011410
11:00−16ююз2396100 1.6 1009258
14:00−14з2493100 0.9 1009458
17:00−16сз2295100 1.2 101050
20:00−18ссв3696100 0.1 1013244